Welcome to the New NWS' Forecast!
Most changes are behind the scenes, but click here for differences you might notice.
Latest weather observations around

Auburn-Lewiston (KLEW)

Using English Units (Switch to International System of Units)
Date/ Time (EDT) Wind (mph) Vis. (mi) Weather Sky Cond. Temp (°F) Rel. Humidity Wind Chill (°F) Heat Index (°F) Pressure Precip. (in)
Air Dwpt 6 hour Altimeter (inHg) Sea level (inHg) 1 hr 3 hr 6 hr
Max Min
Aug 16 23:56 Calm 10 Clear CLR 59 57     93%     30.11 30.14      
Aug 16 22:56 Calm 10 Clear CLR 60 58     93%     30.09 30.13      
Aug 16 21:56 Calm 10 Clear CLR 64 59     84%     30.08 30.12      
Aug 16 20:56 Calm 10 Clear CLR 66 60     81%     30.06 30.1      
Aug 16 19:56 Calm 10 Clear CLR 69 59     70%     30.04 30.07      
Aug 16 19:10 NNE 5 10 Mostly Clear FEW002 73 59     61%   73 30.03        
Aug 16 18:56 N 10 9 Clear CLR 76 58     54%   76 30.02 30.05      
Aug 16 17:56 NNW 9 10 Clear CLR 79 55     44%   79 30.01 30.04      
Aug 16 17:26 NNW 10 10 Mostly Clear FEW002 81 55     42%   81 30        
Aug 16 16:56 N 10 10 Clear   80 58     47%   80 29.99 30.03      
Aug 16 16:18 NNW 10 10 Mostly Clear FEW002 81 57     45%   81 29.98        
Aug 16 15:56 NNW 10 10 Clear CLR 81 58     45%   81 29.98 30.01      
Aug 16 14:56 NNW 8 10 Mostly Cloudy BKN055 79 57     47%   79 29.98 30.01      
Aug 16 13:56   10 Partly Cloudy SCT050 80 60     51%   81 29.97 30     0
Aug 16 12:56 NNW 8 10 Mostly Cloudy BKN048 80 63     56%   81 29.96 29.99      
Aug 16 11:56 WNW 7 10 Partly Cloudy FEW040 SCT049 80 65     60%   82 29.96 29.99      
Aug 16 10:56 NNW 8 10 Cloudy BKN031 OVC036 78 66     67%   79 29.97 30   0  
Aug 16 09:56 NNW 5 10 Mostly Cloudy FEW050 BKN060 75 67     76%   76 29.97 30      
Aug 16 08:56 3 10 Mostly Cloudy BKN060 72 66     82%   73 29.96 30 0    
Aug 16 07:56 Calm 10 Cloudy BKN055 OVC080 71 67     87%   72 29.97 30      
Aug 16 06:56 Calm 10 Clear CLR 69 67     93%     29.95 29.98      
Aug 16 05:56 Calm 10 Partly Cloudy SCT110 68 67     96%     29.93 29.96      
Aug 16 04:56 Calm 10 Cloudy OVC110 68 67     96%     29.91 29.95      
Aug 16 03:56 Calm 10 Clear CLR 68 67     96%     29.9 29.93      
Aug 16 02:56 N 6 10 Clear CLR 69 68     96%     29.88 29.91      
Aug 16 01:56 3 10 Clear CLR 70 68     93%     29.88 29.91 0   0
Aug 16 00:56 Calm 10 Light Rain FEW036 SCT055 BKN120 72 68     87%   73 29.88 29.91 0    
Aug 15 23:56 NNE 3 10 Partly Cloudy SCT075 72 71     97%   73 29.89 29.92      
Aug 15 22:56 Calm 5 Fog/Mist CLR 71 71     100%   73 29.86 29.9      
Aug 15 21:56 SSE 5 7 Clear CLR 72 72     100%   74 29.88 29.91      
Aug 15 20:56 SE 3 8 Clear CLR 73 72     96%   75 29.87 29.9      
Aug 15 19:56 SE 9 9 Clear CLR 75 74     96%   77 29.83 29.86     0
Aug 15 18:56 SSE 7 10 Clear   77 73     88%   79 29.82 29.85      
Aug 15 18:06 S 6 10 Mostly Clear FEW002 79 73     84%   82 29.81        
Aug 15 17:56 S 6 10 Clear CLR 79 72     79%   82 29.8 29.83      
Aug 15 16:56 S 5 10 Clear CLR 77 73     88%   79 29.8 29.84 0 0  
Aug 15 16:28 S 5 9 Mostly Clear FEW095 79 72     79%   82 29.81   0    
Notice The following observation data may not be complete
Aug 15 15:56 NE 6 10 Light Rain FEW017 SCT032 BKN100   70      %     29.82 29.85 0    
Aug 15 15:07 WSW 9 10 Mostly Clear FEW033 82 70     66%   86 29.81        
Aug 15 14:56 SW 10 10 Partly Cloudy SCT033 83 70     65%   87 29.8 29.83      
Aug 15 13:56 3 10 Mostly Clear FEW038 82 69     65%   85 29.81 29.84      
Aug 15 12:56 3 9 Clear CLR 80 70     71%   83 29.82 29.85      
Aug 15 11:56 SSW 5 10 Partly Cloudy SCT018 77 69     77%   78 29.84 29.87      
Aug 15 11:13 Calm 10 Partly Cloudy SCT012 73 68     83%   74 29.85        
Aug 15 10:56 Calm 10 Mostly Cloudy BKN012 74 68     82%   75 29.85 29.88      
Aug 15 10:32 W 6 10 Cloudy OVC012 73 68     83%   74 29.85        
Aug 15 09:56 W 5 10 Clear   72 68     87%   73 29.85 29.88      
Aug 15 09:52 WNW 3 10 Clear   72 68     88%   73 29.85        
Aug 15 09:40 Calm 10 Cloudy OVC010 72 68     88%   73 29.84        
Aug 15 09:14 WNW 5 10 Cloudy OVC008 72 68     88%   73 29.84        
Aug 15 08:56   10 Cloudy OVC010 71 68     90%   72 29.84 29.87      
Aug 15 08:27 Calm 10 Cloudy OVC010 70 70     100%     29.83        
Aug 15 08:09 Calm 10 Cloudy OVC007 70 70     100%     29.84        
Aug 15 07:56 Calm 10 Cloudy BKN005 OVC012 70 68     93%     29.84 29.87      
Aug 15 07:26 Calm 10 Cloudy SCT005 OVC012 70 70     100%     29.83        
Aug 15 07:15 Calm 10 Cloudy BKN005 OVC012 70 68     94%     29.83        
Aug 15 06:56 Calm 10 Cloudy SCT005 OVC012 69 69     100%     29.83 29.86      
Aug 15 06:38 Calm 9 Cloudy FEW005 OVC012 70 68     94%     29.82        
Aug 15 05:56   9 Cloudy OVC014 69 68     96%     29.82 29.85      
Aug 15 04:56 Calm 8 Cloudy SCT004 OVC010 69 69     100%     29.81 29.84      
Aug 15 04:36 Calm 6 Fog/Mist OVC004 68 68     100%     29.81        
Aug 15 03:56 Calm 5 Fog/Mist OVC002 68 68     100%     29.81 29.85      
Aug 15 03:42 Calm 2.5 Fog/Mist OVC002 68 68     100%     29.82        
Aug 15 02:56 Calm 4 Fog/Mist OVC002 68 68     100%     29.81 29.85      
Aug 15 02:34 Calm 3 Fog/Mist OVC002 68 68     100%     29.82        
Aug 15 02:25 Calm 1.5 Fog/Mist OVC002 68 68     100%     29.83        
Aug 15 02:17 Calm 1 Fog/Mist OVC002 68 68     100%     29.83        
Aug 15 01:56 S 3 0.5 Fog BKN002 OVC008 68 68     100%     29.83 29.86     0
Aug 15 01:53 S 3 0.75 Fog/Mist BKN002 OVC008 68 68     100%     29.83        
Aug 15 01:50 SSE 3 1.5 Fog/Mist BKN002 OVC008 68 68     100%     29.83        
Aug 15 01:43 Calm 7 Cloudy BKN002 OVC008 68 68     100%     29.83        
Aug 15 01:11 SSE 3 10 Cloudy FEW004 OVC008 68 68     100%     29.84        
Aug 15 00:56 ESE 3 10 Cloudy SCT004 OVC010 69 68     96%     29.84 29.87      
Aug 14 23:56 Calm 10 Cloudy OVC004 69 68     96%     29.86 29.89 0    
Aug 14 23:06 SSE 3 10 Cloudy OVC004 70 70     100%     29.86   0    
Aug 14 22:56 Calm 10 Light Rain OVC002 69 69     100%     29.85 29.89 0 0  
Aug 14 22:24 Calm 3 Fog/Mist OVC002 70 70     100%     29.86        
Aug 14 21:56 SSE 5 1.25 Fog/Mist OVC002 69 69     100%     29.87 29.9 0    
Aug 14 21:54 S 5 1 Fog/Mist OVC002 70 70     100%     29.87   0    
Aug 14 21:46 S 3 0.75 Fog/Mist OVC002 70 70     100%     29.87   0    
Aug 14 21:16 SSE 3 0.5 Fog OVC002 70 70     100%     29.86   0    
Aug 14 21:06 SSE 3 0.75 Fog/Mist OVC002 70 70     100%     29.86   0    
Aug 14 20:56 S 3 1.75 Light Rain and Fog/Mist OVC002 69 69     100%     29.86 29.9 0    
Aug 14 20:30 S 7 2.5 Fog/Mist OVC002 70 70     100%     29.87   0    
Aug 14 19:56 S 6 7 Light Rain OVC004 69 69     100%     29.86 29.9 0   0
Aug 14 19:49 SE 6 9 Light Rain OVC004 70 68     94%     29.86   0    
Aug 14 19:28 S 8 10 Light Rain BKN008 72 70     94%   73 29.86   0    
Aug 14 19:11 SSE 7 10 Partly Cloudy SCT008 72 70     94%   73 29.84        
Aug 14 18:56 SSE 8 10 Clear   73 70     90%   74 29.85 29.88      
Aug 14 18:39 S 6 10 Clear   73 72     94%   75 29.84        
Aug 14 18:32 SSE 7 10 Mostly Cloudy BKN015 75 72     89%   77 29.84        
Aug 14 18:13 3 10 Mostly Clear FEW002 75 70     83%   76 29.84        
Aug 14 17:56 ESE 7 10 Clear CLR 77 70     79%   78 29.84        
Aug 14 16:56 S 6 10 Mostly Clear FEW017 78 71     79%   79 29.86 29.9      
Aug 14 16:31 S 6 10 Mostly Clear FEW017 79 70     74%   80 29.86        
Aug 14 16:24 3 10 Mostly Cloudy FEW002 SCT017 BKN027 79 72     79%   82 29.87        
Aug 14 15:56 SE 6 10 Mostly Cloudy FEW017 BKN023 BKN027 77 71     82%   78 29.87 29.9      
Aug 14 15:37 SE 5 10 Mostly Cloudy BKN020 75 70     83%   76 29.88        
Aug 14 15:25 6 10 Partly Cloudy SCT020 77 72     83%   78 29.88        
Aug 14 15:17 SE 6 10 Mostly Cloudy BKN020 75 70     83%   76 29.88        
Aug 14 14:56 SSW 7 10 Mostly Cloudy BKN024 76 70     82%   77 29.89 29.92      
Aug 14 14:27 SSW 6 10 Cloudy FEW011 SCT014 OVC024 73 70     89%   75 29.9        
Aug 14 14:12 SSW 8 10 Cloudy BKN011 BKN015 OVC025 73 70     89%   75 29.9        
Aug 14 13:56 6 10 Cloudy BKN009 OVC020 74 71     91%   75 29.91 29.94     0
Aug 14 12:56 S 6 10 Cloudy OVC006 72 70     93%   73 29.92 29.95      
Aug 14 12:29 SSE 7 10 Clear   72 70     94%   73 29.92        
Aug 14 11:56 SSE 7 8 Cloudy OVC004 71 70     96%   72 29.93 29.96 0    
Notice The following observation data may not be complete
Aug 14 11:14   3 Light Rain and Fog/Mist BKN004 BKN010 OVC028          %         0    
Aug 14 11:09 ESE 5 1.5 Heavy Rain and Fog/Mist BKN004 OVC028 70 70     100%     29.94   0    
Aug 14 10:56 ESE 6 2.5 Light Rain and Fog/Mist OVC004 70 69     97%     29.94 29.97 0 0  
Notice The following observation data may not be complete
Aug 14 10:36   2.5 Light Rain and Fog/Mist BKN004 BKN008 OVC013          %         0    
Aug 14 10:22 S 5 2 Heavy Rain and Fog/Mist   70 70     100%     29.94   0    
Aug 14 09:56 E 5 10 Light Rain OVC005 70 69     97%     29.94 29.97 0    
Aug 14 09:42 E 5 6 Light Rain and Fog/Mist OVC005 70 68     94%     29.94   0    
Aug 14 08:56 E 3 5 Light Rain and Fog/Mist OVC003 69 68     96%     29.95 29.98 0    
Aug 14 07:56 E 3 6 Fog/Mist OVC003 68 68     100%     29.95 29.99     0
Aug 14 06:56 Calm 7 Cloudy OVC003 68 68     100%     29.95 29.98      
Notice The following observation data may not be complete
Aug 14 05:56 Calm 6 Haze OVC003          %     29.94        
Aug 14 04:56 Calm 9 Cloudy OVC003 68 67     96%     29.95 29.98 0 0  
Aug 14 03:56 ENE 5 10 Light Rain OVC003 68 67     96%     29.97 30 0    
Aug 14 03:22 Calm 9 Cloudy OVC003 68 66     94%     29.98        
Aug 14 02:56 Calm 10 Cloudy OVC005 68 67     96%     29.98 30.01      
Aug 14 01:56 Calm 10 Cloudy BKN005 OVC010 68 67     96%     29.99 30.02 0   0
Aug 14 01:53 Calm 10 Cloudy BKN005 OVC010 68 66     94%     29.99   0    
Aug 14 00:35 Calm 10 Light Rain FEW006 OVC010 70 68     94%     30.01   0    
May 15 08:56 Calm 10 Mostly Cloudy BKN100 61 53     75%     29.77        
May 15 05:56 Calm 10 Clear CLR 45 44     97%     29.79 29.84      
May 15 03:03 SSE 6 1.75 Fog/Mist CLR 46 46     100% 43   29.83        
May 14 19:56 SSE 8 10 Clear CLR 58 51     78%     29.83 29.88     0
May 14 18:56 S 10 10 Clear CLR 61 52     72%     29.82 29.87      
May 13 15:56 S 15 10 Clear CLR 63 36     37%     30.11 30.16      
May 12 16:56 SSE 13 10 Clear CLR 55 30     38%     30.09 30.14      
May 12 08:56 5 10 Clear CLR 51 28     41%     30.24 30.29      
May 12 01:56 Calm 10 Clear CLR 34 27     75%     30.18 30.23      
May 11 22:56 N 3 10 Clear CLR 46 25     43% 45   30.15        
May 11 20:56 N 8 10 Clear CLR 51 19     28%     30.09 30.14      
May 11 13:56 N 16 10 Clear CLR 59 27     29%     29.95 30      
Jun 11 23:56 Calm 10 Clear CLR 75 61     62%   75 29.87 29.9      
Jun 11 19:56 SW 8 10 Clear   85 61     45%   85 29.8 29.82      
Jun 11 12:56   10 Clear CLR 87 61     42%   87 29.81 29.84      
Jun 11 11:56 SW 11 10 Clear   84 62     48%   85 29.85 29.88      
Jun 11 10:56 S 13 10 Clear   82 64     55%   84 29.87 29.9      
Jun 11 08:56 SW 9 10 Clear CLR 77 62     60%   77 29.9 29.94      
Jun 10 04:56 Calm 10 Clear CLR 51 50     96%     29.86 29.9      
Jun 09 21:56 WSW 6 10 Clear CLR 66 52     61%     29.69 29.73      
Jun 09 13:56 Calm 10 Rain   57 51     81%     29.63   0   0
Jun 09 12:56 WNW 3 10 Light Rain FEW041 BKN065 OVC075 61 46     58%     29.64 29.68 0    
Jun 09 05:56 Calm 10 Mostly Clear FEW120 50 47     89%     29.71 29.75      
Jun 08 19:56 SSE 8 10 Clear CLR 63 42     46%     29.9 29.94      
Notice The following observation data may not be complete
Jun 06 09:06   10 Light Rain            %         0    
Jun 06 04:56 NNE 7 10 Light Rain FEW019 OVC060 49 46     90% 46   29.93 29.98 0 0  
Jun 06 00:56 NE 7 10 Cloudy OVC055 50 46     86% 47   29.96 30.01